Stations météo

réclame
Mon MeteoGroup
Chassiron, France (7314): Température de l'air & dewpoint: 08.08.2018 19:00:00 - 14.08.2018 19:00:00 (CEST)Chassiron, France (7314): Vitesse du vent & gusts: 08.08.2018 19:00:00 - 14.08.2018 19:00:00 (CEST)Chassiron, France (7314): Direction du vent: 08.08.2018 19:00:00 - 14.08.2018 19:00:00 (CEST)Chassiron, France (7314): reduced air pressure: 08.08.2018 19:00:00 - 14.08.2018 19:00:00 (CEST)Chassiron, France (7314): visibility: 08.08.2018 19:00:00 - 14.08.2018 19:00:00 (CEST)Chassiron, France (7314): Quantités de précipitations: 08.08.2018 19:00:00 - 14.08.2018 19:00:00 (CEST)
Date & Time tt [°C] td [°C] ff [km/h] ff [knt] fx [km/h] fx [knt] dd ppp [hPa] vv [km] rr [mm]
14.08.2018 19:00:00 19,8 15,6 30 16 40 22 NW 1022,0 - 0,0
14.08.2018 18:00:00 19,9 14,9 27 15 35 19 NW 1022,1 - 0,0
14.08.2018 17:00:00 20,7 15,3 21 12 29 16 WNW 1022,5 17 0,0
14.08.2018 16:00:00 20,7 14,3 16 9 29 16 WNW 1022,6 - 0,0
14.08.2018 15:00:00 20,6 14,9 15 8 24 13 W 1022,6 - 0,0
14.08.2018 14:00:00 20,8 14,9 11 6 23 12 WNW 1022,3 - 0,0
14.08.2018 13:00:00 20,1 14,5 13 7 19 11 NW 1022,1 - 0,0
14.08.2018 12:00:00 19,9 15,1 9 5 16 9 NNW 1021,8 - 0,0
14.08.2018 11:00:00 19,4 15,3 12 7 21 12 N 1021,6 15 0,0
14.08.2018 10:00:00 18,7 15,4 15 8 22 12 N 1021,1 - 0,0
14.08.2018 09:00:00 18,1 15,9 18 10 24 13 N 1020,7 - 0,0
14.08.2018 08:00:00 18,1 16,1 16 9 30 16 N 1019,9 15 0,0
14.08.2018 07:00:00 18,2 16,2 23 13 31 17 NNW 1019,0 - 0,0
14.08.2018 06:00:00 18,5 16,8 24 13 35 19 NW 1018,4 - 0,0
14.08.2018 05:00:00 18,8 16,6 26 14 37 20 NW 1018,1 14 0,0
14.08.2018 04:00:00 19,0 16,8 28 15 40 21 WNW 1017,8 - 0,0
14.08.2018 03:00:00 18,8 16,8 23 13 32 17 WNW 1017,4 - 0,0
14.08.2018 02:00:00 19,0 16,8 18 10 26 14 NW 1017,6 14 0,0
14.08.2018 01:00:00 19,2 17,0 16 9 22 12 NW 1017,3 - 0,0
14.08.2018 00:00:00 19,2 16,8 13 7 20 11 NW 1016,9 - 0,0
13.08.2018 23:00:00 19,4 16,4 14 7 23 12 WNW 1016,6 - 0,0
13.08.2018 22:00:00 19,6 16,4 17 9 29 15 W 1015,8 - 0,0
13.08.2018 21:00:00 19,6 15,9 23 12 38 20 WNW 1015,4 - 0,0
13.08.2018 20:00:00 20,1 16,9 16 9 31 17 WNW 1015,0 18 0,0
13.08.2018 19:00:00 20,4 16,8 18 10 26 14 W 1014,7 - 0,0
13.08.2018 18:00:00 21,1 16,1 22 12 29 15 W 1014,6 - 0,0
13.08.2018 17:00:00 20,5 16,7 21 11 31 17 W 1014,6 - 0,0
13.08.2018 16:00:00 20,8 17,0 18 10 36 20 W 1014,6 - 0,0
13.08.2018 15:00:00 19,9 17,7 23 13 48 26 WSW 1014,5 - 0,8
13.08.2018 14:00:00 20,8 17,0 14 7 21 12 WSW 1014,3 11 0,0
13.08.2018 13:00:00 20,4 17,2 11 6 26 14 WSW 1014,2 - 0,0
13.08.2018 12:00:00 19,7 17,3 18 10 32 17 WSW 1014,1 - 0,0
13.08.2018 11:00:00 20,1 16,9 20 11 31 17 WSW 1013,7 - 0,0
13.08.2018 10:00:00 20,2 17,2 21 11 31 17 WSW 1013,2 - 0,0
13.08.2018 09:00:00 20,0 16,6 22 12 36 20 W 1012,9 - 0,0
13.08.2018 08:00:00 19,9 16,5 29 16 40 22 WSW 1012,6 - 0,0
13.08.2018 07:00:00 20,3 16,5 27 15 40 21 W 1012,2 - 0,0
13.08.2018 06:00:00 19,9 15,9 27 15 44 24 WSW 1012,2 - 0,0
13.08.2018 05:00:00 19,5 16,7 27 15 42 23 W 1012,6 15 0,2
13.08.2018 04:00:00 19,9 16,9 18 10 34 18 WSW 1012,5 - 0,0
13.08.2018 03:00:00 19,6 16,4 29 16 49 26 W 1012,6 - 0,0
13.08.2018 02:00:00 20,1 16,3 25 13 32 17 WSW 1012,7 15 0,0
13.08.2018 01:00:00 19,5 16,2 20 11 29 16 W 1012,7 - 0,0
13.08.2018 00:00:00 19,7 17,5 14 8 23 13 WSW 1012,7 - 0,0
12.08.2018 23:00:00 19,8 17,6 18 10 26 14 W 1012,9 14 0,0
12.08.2018 22:00:00 20,7 18,5 21 11 42 23 W 1012,7 - 0,0
12.08.2018 21:00:00 21,5 19,2 19 10 26 14 SSW 1012,1 - 0,0
12.08.2018 20:00:00 21,6 19,0 15 8 23 12 SW 1011,9 20 0,0
12.08.2018 19:00:00 21,8 19,0 14 7 19 10 SW 1012,3 - 0,0
12.08.2018 18:00:00 22,2 18,0 13 7 27 15 SW 1012,6 - 0,0
12.08.2018 17:00:00 22,9 18,9 14 7 19 11 SW 1013,1 - 0,0
12.08.2018 16:00:00 22,6 18,4 11 6 16 8 SSW 1013,3 - 0,0
12.08.2018 15:00:00 21,8 18,4 11 6 16 9 WSW 1014,0 - 0,0
12.08.2018 14:00:00 21,8 19,0 12 6 17 9 WSW 1014,5 13 0,0
12.08.2018 13:00:00 22,6 19,2 13 7 24 13 SW 1014,4 - 0,0
12.08.2018 12:00:00 22,7 18,9 16 8 25 14 SSW 1014,5 - 0,0
12.08.2018 11:00:00 23,1 18,6 18 10 27 15 S 1014,4 18 0,0
12.08.2018 10:00:00 22,7 17,4 21 11 29 16 S 1014,5 - 0,0
12.08.2018 09:00:00 21,4 15,5 19 10 26 14 SSE 1014,8 - 0,0
12.08.2018 08:00:00 17,8 13,5 16 8 23 13 SSE 1015,0 15 0,0
12.08.2018 07:00:00 17,0 12,9 15 8 23 12 SE 1015,1 - 0,0
12.08.2018 06:00:00 17,1 13,6 12 6 20 11 ESE 1015,3 - 0,0
12.08.2018 05:00:00 17,6 14,7 12 7 18 10 E 1015,8 - 0,0
12.08.2018 04:00:00 18,3 15,7 10 6 17 9 E 1016,5 - 0,0
12.08.2018 03:00:00 18,6 16,4 9 5 14 7 ENE 1017,4 - 0,0
12.08.2018 02:00:00 18,3 15,7 10 5 13 7 NE 1018,2 - 0,0
12.08.2018 01:00:00 18,3 15,2 8 4 14 7 N 1019,0 - 0,0
12.08.2018 00:00:00 18,6 14,9 8 5 14 8 N 1019,5 - 0,0
11.08.2018 23:00:00 19,1 15,2 10 5 18 10 N 1019,9 - 0,0
11.08.2018 22:00:00 18,8 14,9 13 7 26 14 N 1020,2 - 0,0
11.08.2018 21:00:00 19,1 14,8 19 10 27 15 NNW 1020,3 - 0,0
11.08.2018 20:00:00 20,1 15,1 17 9 26 14 NW 1020,7 - 0,0
11.08.2018 19:00:00 21,2 14,1 18 10 24 13 NW 1021,3 - 0,0
11.08.2018 18:00:00 21,4 13,8 18 10 24 13 WNW 1021,8 - 0,0
11.08.2018 17:00:00 21,1 14,3 18 10 25 14 WNW 1022,5 - 0,0
11.08.2018 16:00:00 20,8 14,7 14 8 22 12 NW 1023,3 - 0,0
11.08.2018 15:00:00 21,0 13,2 12 6 15 8 N 1023,8 - 0,0
11.08.2018 14:00:00 21,7 12,5 9 5 14 8 NE 1024,5 18 0,0
11.08.2018 13:00:00 21,4 13,1 8 4 16 9 NE 1025,2 - 0,0
11.08.2018 12:00:00 21,5 14,4 8 4 18 10 E 1025,7 - 0,0
11.08.2018 11:00:00 20,2 14,1 10 5 22 12 E 1025,9 - 0,0
11.08.2018 10:00:00 19,5 14,1 10 5 20 11 E 1026,1 - 0,0
11.08.2018 09:00:00 18,4 13,7 12 6 20 11 E 1026,2 - 0,0
11.08.2018 08:00:00 16,8 13,7 9 5 17 9 E 1026,1 15 0,0
11.08.2018 07:00:00 15,5 13,2 9 5 16 8 E 1025,8 - 0,0
11.08.2018 06:00:00 16,3 13,2 6 3 11 6 ENE 1025,8 - 0,0
11.08.2018 05:00:00 16,2 13,3 5 3 13 7 ENE 1025,9 - 0,0
11.08.2018 04:00:00 17,0 14,3 10 5 13 7 N 1026,1 - 0,0
11.08.2018 03:00:00 17,2 14,8 7 4 9 5 N 1026,3 - 0,0
11.08.2018 02:00:00 17,1 14,6 6 4 10 5 NNW 1026,7 15 0,0
11.08.2018 01:00:00 16,7 14,0 5 3 7 4 NW 1026,7 - 0,0
11.08.2018 00:00:00 16,6 13,3 3 1 5 3 NW 1026,6 - 0,0
10.08.2018 23:00:00 17,6 13,3 4 2 9 5 NW 1026,5 17 0,0
10.08.2018 22:00:00 18,5 14,0 8 4 13 7 NW 1026,1 - 0,0
10.08.2018 21:00:00 19,0 13,4 8 5 15 8 NW 1025,8 - 0,0
10.08.2018 20:00:00 20,0 13,7 8 5 22 12 NW 1025,7 - 0,0
10.08.2018 19:00:00 21,1 14,0 7 4 14 8 WNW 1025,8 - 0,0
10.08.2018 18:00:00 21,7 13,6 10 5 14 8 W 1025,9 - 0,0
10.08.2018 17:00:00 21,8 13,7 9 5 14 7 W 1026,0 20 0,0
10.08.2018 16:00:00 22,2 14,6 6 3 15 8 SSW 1026,3 - 0,0
10.08.2018 15:00:00 22,1 15,4 6 4 10 6 S 1026,5 - 0,0
10.08.2018 14:00:00 22,1 14,7 7 4 19 10 S 1026,4 12 0,0
10.08.2018 13:00:00 21,8 14,2 10 5 20 11 S 1026,4 - 0,0
10.08.2018 12:00:00 20,5 13,7 10 5 25 14 S 1026,3 - 0,0
10.08.2018 11:00:00 19,6 14,8 14 8 24 13 S 1026,0 17 0,0
10.08.2018 10:00:00 18,3 14,6 6 4 16 9 SE 1025,8 - 0,0
10.08.2018 09:00:00 17,5 14,0 12 7 22 12 SE 1025,7 - 0,0
10.08.2018 08:00:00 15,1 12,6 14 8 21 12 SE 1025,5 17 0,0
10.08.2018 07:00:00 14,5 11,5 11 6 16 8 SE 1025,1 - 0,0
10.08.2018 06:00:00 14,4 12,1 9 5 13 7 SE 1024,9 - 0,0
10.08.2018 05:00:00 13,7 11,6 7 4 11 6 SE 1024,8 17 0,0
10.08.2018 04:00:00 14,0 11,2 7 4 9 5 SE 1024,9 - 0,0
10.08.2018 03:00:00 14,3 11,6 3 2 6 4 SSE 1024,8 - 0,0
10.08.2018 02:00:00 15,4 12,2 2 1 8 5 SSE 1024,9 17 0,0
10.08.2018 01:00:00 16,8 13,3 3 2 10 5 W 1024,7 - 0,0
10.08.2018 00:00:00 17,3 13,0 9 5 21 11 NW 1024,1 - 0,0
09.08.2018 23:00:00 17,9 12,6 16 9 24 13 NW 1023,8 - 0,0
09.08.2018 22:00:00 18,3 12,7 17 9 25 14 WNW 1023,3 - 0,0
09.08.2018 21:00:00 18,9 13,1 13 7 26 14 WNW 1022,5 - 0,0
09.08.2018 20:00:00 19,6 13,3 19 10 26 14 WNW 1021,9 - 0,0
09.08.2018 19:00:00 19,9 14,3 16 9 29 16 WNW 1021,4 - 0,0
09.08.2018 18:00:00 20,2 14,6 14 7 29 15 WNW 1020,9 - 0,0
09.08.2018 17:00:00 19,8 13,5 17 9 29 16 W 1020,5 20 0,0
09.08.2018 16:00:00 20,1 13,3 16 9 24 13 W 1020,1 - 0,0
09.08.2018 15:00:00 19,5 13,9 15 8 22 12 W 1019,7 - 0,0
09.08.2018 14:00:00 19,3 13,5 16 9 31 17 WNW 1019,1 17 0,0
09.08.2018 13:00:00 19,1 13,1 22 12 34 19 WNW 1018,3 - 0,0
09.08.2018 12:00:00 18,7 13,8 23 12 33 18 WNW 1017,5 - 0,0
09.08.2018 11:00:00 17,9 14,4 20 11 46 25 NW 1016,6 17 0,0
09.08.2018 10:00:00 17,1 13,8 31 17 44 24 NW 1015,9 - 0,0
09.08.2018 09:00:00 16,8 14,3 26 14 38 20 NW 1014,4 - 0,0
09.08.2018 08:00:00 16,5 14,1 29 16 40 22 NW 1013,0 - 0,0
09.08.2018 07:00:00 16,4 14,6 23 13 36 19 NNW 1011,6 - 0,0
09.08.2018 06:00:00 16,1 14,8 27 15 40 22 NNW 1011,1 - 2,2
09.08.2018 05:00:00 16,3 15,0 16 9 55 30 NNW 1012,2 15 11,0
09.08.2018 04:00:00 17,3 14,4 20 11 43 23 NW 1010,9 - 5,3
09.08.2018 03:00:00 19,1 13,9 28 15 39 21 N 1009,9 - 0,0
09.08.2018 02:00:00 19,0 14,3 29 16 40 22 N 1011,1 15 0,0
09.08.2018 01:00:00 19,1 14,4 27 14 38 21 NNW 1012,6 - 0,0
09.08.2018 00:00:00 19,3 14,5 25 13 33 18 NNW 1013,3 - 0,0
08.08.2018 23:00:00 19,3 14,8 22 12 28 15 NNW 1014,0 - 0,0
08.08.2018 22:00:00 19,8 14,6 18 10 29 15 NNW 1014,1 - 0,0
08.08.2018 21:00:00 20,1 14,2 16 9 25 13 NW 1014,0 - 0,0
08.08.2018 20:00:00 20,5 14,2 14 8 19 11 NW 1013,9 17 0,0
08.08.2018 19:00:00 21,2 14,6 9 5 17 9 NW 1014,3 - 0,0

tt = Température de l'air
td = dewpoint
ff = Vitesse du vent
fx = gusts
dd = Direction du vent
ppp = reduced air pressure
vv = visibility
rr = Quantités de précipitations

stations d'obs. à proximité